sat.trackr.live / text

‹ back to catalog

STARLINK-31887

NORAD 59839 · 2024-097E

PAYLOAD ACTIVE UNKNOWN

§ Identity

Operator
Country
US
Launch date
2024-05-23
Launch site
AFETR
Launch vehicle
Mass (kg)
RCS (m²)

Purposes: comms

External: N2YO · Heavens-Above · Gunter

§ Orbital elements

Epoch: 2026-05-25T04:45:16.640064Z

Period
94.27 min
Inclination
43.0002°
Eccentricity
0.0001171
Mean motion
15.27579559 rev/d
Perigee alt
482.2 km
Apogee alt
483.9 km
Semi-major
6,861.2 km
B*
4.5162e-6
RAAN
202.6331°
Arg perigee
274.2674°
Mean anomaly
85.8044°
Rev number
11,361

§ Raw data

STARLINK-318871 59839U 24097E   26145.19810926 -.00000138  00000+0  45162-5 0  99952 59839  43.0002 202.6331 0001171 274.2674  85.8044 15.27579559113610

JSON: /api/v1/satellites/59839 · /tle

For live sub-satellite position, see the globe view (requires WebGL).

§ Visibility from observer

Set your observer location to see the next 7 days of passes ≥ 10°. The values pass through the URL so the page stays shareable.

No JS? Fill the form by hand. The geolocation button needs JavaScript.